Dewpoint
62 62 61 60 59 58 57 56 55 54 53 52 51 51 51 52 51 51 49 49 49 48 48 47 46 47 46 45 44 44 43 44 43 43 42 41 40 40 39 37 37 38 39 39 37 38 36 35 35 37 38 38 36 37 35 36 37 35 36 33 33 36 35 34 32 31 33 33 30 29 31 32 26 25 24 29 31 31 34 34 35 35 34 35 36
61 61 61 60 60 59 58 56 54 53 53 52 51 50 50 52 52 50 50 48 47 45 46 47 46 46 44 43 43 42 42 42 43 42 40 40 41 41 40 37 38 38 39 37 38 38 38 36 36 38 38 38 38 34 35 35 35 33 34 35 34 35 36 34 31 31 31 32 30 27 28 28 26 27 29 31 31 34 33 32 33 32 34 35 33
61 61 61 60 59 58 56 54 53 53 52 52 51 50 51 52 50 49 48 47 47 46 46 46 45 44 43 43 42 41 42 41 42 41 40 40 39 41 40 39 39 39 38 37 34 36 37 38 38 39 40 40 39 39 38 38 36 36 37 35 36 34 34 35 34 32 32 30 32 29 30 30 32 27 24 29 32 29 28 31 32 34 33 34 35
61 61 60 59 58 55 54 53 53 52 52 52 51 51 51 50 50 49 47 47 46 47 46 44 44 44 43 42 42 41 42 42 40 38 37 38 38 38 38 40 39 38 37 36 35 36 36 37 38 39 40 39 38 37 37 38 37 36 37 34 35 35 36 37 36 34 32 32 33 26 29 30 29 25 27 28 27 31 31 30 31 33 34 33 34
59 59 58 58 55 54 53 53 53 53 52 52 52 52 51 50 50 46 47 46 46 46 45 44 43 43 44 42 41 41 41 40 39 38 39 39 38 39 38 38 39 38 38 38 37 37 37 37 37 38 39 39 39 36 37 39 36 38 36 34 33 35 35 36 35 33 33 32 31 30 31 27 28 30 27 26 29 30 32 33 31 30 33 34 34
59 58 57 56 54 54 53 53 52 52 52 52 52 51 51 50 48 47 44 44 46 45 44 43 43 41 41 41 41 40 40 40 38 38 38 39 40 40 40 40 39 38 38 38 37 38 39 37 38 38 38 39 39 38 37 37 36 37 36 35 33 35 35 34 33 33 32 29 30 29 31 29 30 32 27 27 30 31 30 30 32 32 33 34 33
58 57 56 55 54 54 53 53 52 52 52 52 51 50 49 50 47 44 44 44 45 44 43 43 44 42 41 41 41 41 40 40 40 40 39 39 39 39 40 40 39 40 39 37 37 38 38 38 39 40 36 36 37 36 35 36 35 36 35 35 33 34 33 30 30 30 30 29 28 29 27 29 32 29 26 29 31 30 30 30 29 31 33 34 33
58 57 56 55 55 54 53 53 53 52 52 51 49 49 48 48 46 45 44 44 44 42 42 43 44 42 42 41 42 42 41 40 40 39 39 40 41 40 41 41 40 41 41 39 39 38 39 39 39 36 34 34 36 35 34 33 34 34 33 33 33 32 30 29 29 26 26 28 25 24 25 28 27 29 29 32 31 29 31 30 30 31 32 33 34
57 56 56 56 55 53 53 53 52 52 50 49 49 49 48 47 46 45 45 45 45 43 43 43 43 42 42 43 41 42 43 42 42 41 40 39 41 41 41 39 40 40 40 39 40 38 39 39 36 35 36 38 39 38 38 36 36 31 32 31 31 30 30 28 27 23 24 26 25 27 26 26 27 28 27 29 28 29 31 32 32 31 31 32 33
56 55 55 55 54 53 53 52 50 50 49 49 48 50 47 47 46 45 46 45 45 43 42 44 41 43 42 42 43 44 44 44 45 43 41 40 41 41 41 41 40 40 40 40 40 40 39 40 37 36 40 40 42 41 39 39 39 39 33 31 28 29 28 29 25 24 27 24 24 26 26 27 26 29 30 31 31 32 31 32 30 29 32 32 32
56 55 54 53 52 51 50 49 49 48 48 47 47 47 48 46 44 44 46 44 45 44 43 42 42 42 41 42 43 44 44 45 41 39 39 40 42 42 41 41 41 40 40 40 40 40 40 38 40 40 43 43 45 40 38 39 38 38 40 40 39 35 30 27 25 28 26 26 27 28 26 27 27 29 30 28 31 31 31 31 30 31 32 30 29
55 55 53 52 50 49 49 48 47 47 47 45 46 47 47 47 45 44 45 46 45 44 44 43 45 43 43 42 44 44 45 44 38 39 38 38 41 45 42 41 41 41 40 39 38 39 40 40 38 39 37 31 34 40 40 40 37 37 37 38 37 38 38 33 30 28 29 28 28 29 28 27 27 29 28 30 30 31 32 31 31 32 32 30 29
54 53 52 51 49 49 47 47 46 46 45 46 47 45 43 42 42 43 45 47 47 45 42 44 43 43 43 42 43 44 46 39 38 38 38 38 38 41 39 41 39 40 40 38 38 38 39 39 38 38 40 42 38 33 34 37 40 39 39 39 40 36 32 34 35 36 31 30 30 29 28 28 28 29 31 32 34 33 31 30 32 33 31 30 30
52 51 51 50 49 47 47 46 45 45 45 45 45 44 44 41 44 44 43 42 41 41 41 43 43 43 43 43 43 44 46 40 38 38 38 38 38 38 39 39 41 39 38 37 39 39 39 38 36 36 36 38 37 34 34 35 35 37 38 36 35 35 34 33 30 31 33 31 31 29 31 31 29 31 32 34 33 31 31 31 34 34 32 30 32
51 50 49 49 48 47 46 46 45 44 43 44 43 42 42 43 41 41 40 37 38 40 42 43 43 44 43 43 43 44 45 38 38 38 38 37 37 37 41 40 40 40 39 40 40 40 39 37 36 36 36 38 42 37 37 33 36 38 36 36 35 35 37 35 33 33 32 32 32 32 32 32 31 32 33 33 34 34 35 34 35 33 33 34 32
51 50 49 48 48 47 46 45 45 44 43 43 42 41 42 41 42 42 41 39 40 39 40 41 43 43 44 44 44 44 44 37 37 37 37 36 37 40 40 40 38 38 39 40 39 39 37 36 36 37 35 38 39 35 37 37 36 36 35 35 36 36 36 37 32 33 36 35 34 33 33 35 35 37 38 35 35 36 34 34 33 32 31 29 31
51 50 49 48 47 47 46 45 45 44 43 42 41 41 42 42 43 43 41 40 39 39 40 42 43 43 43 43 43 42 40 38 36 36 36 36 37 37 38 34 36 38 39 40 38 38 37 34 36 35 36 38 38 35 35 36 38 35 35 36 37 36 35 35 33 33 34 35 34 34 34 34 34 34 34 35 36 38 35 29 29 31 30 28 30
51 49 48 46 46 46 45 45 44 43 42 41 41 42 43 43 43 42 40 38 38 38 40 40 40 41 42 42 42 41 39 39 36 36 36 36 37 34 31 33 36 37 39 39 38 36 36 42 40 36 36 39 35 35 35 40 36 35 35 35 35 34 34 33 33 33 34 34 34 34 34 34 34 34 35 36 35 36 31 28 31 29 29 28 29
52 49 48 47 47 47 46 45 44 43 42 42 43 42 42 42 42 41 39 39 38 38 37 39 40 40 41 41 43 42 40 38 36 36 36 35 37 36 31 32 35 38 37 37 38 35 34 34 39 41 38 40 34 35 35 38 35 35 35 36 33 33 32 32 31 32 34 35 36 36 34 33 31 30 32 33 34 35 32 32 31 30 29 29 31
52 50 49 48 48 47 46 46 45 43 43 42 41 41 41 41 41 39 38 36 35 37 37 37 39 39 40 42 41 41 40 38 38 36 36 35 35 39 33 32 34 36 35 33 34 34 34 35 39 35 34 34 34 35 35 36 38 35 36 35 33 30 30 30 32 32 34 35 35 35 34 31 29 28 29 30 31 32 32 34 34 32 31 30 31
51 51 49 48 47 47 48 49 48 45 43 41 40 42 42 40 40 39 37 36 35 36 36 38 38 38 40 41 40 41 40 38 37 35 36 36 35 36 36 35 35 34 34 32 31 33 32 32 37 36 34 34 35 35 35 35 36 38 36 33 32 39 34 32 32 35 35 34 33 31 30 28 27 25 24 24 23 27 32 35 33 32 33 32 30
49 49 48 47 47 48 49 49 47 45 44 42 41 41 40 40 39 39 35 35 36 37 38 38 37 37 38 39 39 38 37 38 35 36 36 35 35 34 38 37 35 33 33 30 30 31 32 30 35 38 34 34 34 35 35 35 35 39 37 33 33 33 37 32 34 33 31 31 28 27 28 25 23 24 22 21 24 30 33 31 31 33 33 33 31
49 48 48 48 48 48 48 47 45 44 43 42 40 40 39 39 39 37 36 37 38 38 37 36 37 36 36 35 34 33 35 35 35 36 35 35 35 35 33 36 30 42 33 31 32 32 32 34 39 37 34 34 34 35 35 35 35 39 33 33 33 32 34 34 32 32 29 29 29 28 27 26 27 23 23 24 28 32 30 29 30 31 33 33 33
49 48 48 47 47 46 46 45 45 44 43 43 41 39 39 39 37 36 35 34 33 34 33 34 34 31 30 29 31 29 34 32 35 35 35 34 35 34 33 32 33 37 37 34 33 31 33 36 37 33 33 34 34 34 34 35 35 33 32 32 33 33 34 32 29 31 30 27 27 27 27 25 25 25 25 28 27 30 28 29 30 31 32 33 32
49 48 47 47 46 45 45 44 44 42 42 41 40 39 39 37 35 35 35 32 30 29 34 29 26 25 24 27 26 29 31 31 31 34 34 34 34 34 33 33 33 32 36 35 34 36 37 33 33 33 34 34 34 34 34 34 33 34 34 33 34 33 32 29 30 31 30 29 27 29 27 26 26 27 30 30 30 27 27 28 30 31 32 32 31
49 48 47 46 46 45 44 44 43 41 41 40 40 38 38 36 34 34 29 26 26 25 24 22 21 22 22 26 27 30 31 33 32 34 36 35 35 34 34 34 35 35 35 36 32 31 32 33 33 32 33 35 40 41 34 34 35 34 34 35 38 30 29 29 31 31 31 28 28 27 26 26 26 29 30 28 25 22 25 25 25 27 30 30 28
48 48 47 46 46 45 45 44 43 41 41 39 39 38 36 35 35 33 27 25 24 23 22 22 22 21 24 27 29 31 32 32 32 31 30 32 30 33 35 34 35 36 33 32 33 31 34 34 32 33 33 33 34 34 34 35 36 38 37 32 31 30 32 30 31 33 30 28 29 28 29 28 29 28 25 24 22 23 26 24 23 25 29 28 27
48 47 46 46 45 45 44 40 42 41 40 40 39 38 37 36 34 32 27 27 26 25 24 23 23 27 28 32 34 33 32 32 33 34 30 30 29 27 28 30 32 30 28 29 32 33 34 34 36 36 37 37 37 36 36 36 32 29 30 29 28 30 31 33 34 32 31 30 29 30 29 31 29 27 25 23 22 24 26 24 25 25 26 28 26
47 47 46 45 45 45 45 44 43 42 41 40 39 38 36 35 34 33 34 30 28 26 27 26 26 28 31 34 34 34 33 34 36 34 36 33 31 31 30 29 31 31 32 32 33 36 34 31 30 32 32 32 30 32 32 30 32 31 34 33 31 30 30 28 31 30 29 30 29 30 28 29 30 28 27 25 26 25 26 24 26 25 25 26 26
47 46 45 45 45 44 44 44 44 42 40 39 39 39 34 34 34 34 34 34 34 32 31 29 28 28 30 32 35 34 35 36 35 36 36 36 36 35 33 30 29 31 34 30 30 29 30 29 30 31 31 30 29 28 29 29 30 28 29 27 28 29 27 29 29 29 30 30 30 29 30 29 30 29 28 27 27 26 24 25 25 24 23 22 23
46 46 45 44 43 44 44 43 43 42 41 40 40 38 37 35 35 35 36 37 37 36 34 32 30 30 31 31 34 35 35 35 35 36 36 36 36 35 34 32 32 32 33 30 26 23 21 21 24 26 26 29 28 28 31 28 28 28 28 28 28 28 28 31 29 29 29 31 31 31 31 31 30 30 30 29 30 27 27 25 23 24 23 21 22
46 45 44 44 43 43 43 43 43 43 42 41 40 39 38 37 37 35 36 37 37 37 36 36 35 33 34 36 37 38 36 35 35 35 36 36 35 35 34 32 32 33 32 31 19 17 20 22 24 24 29 29 29 27 29 30 29 29 30 26 25 27 27 29 31 32 31 30 29 29 30 30 30 29 30 29 28 28 28 26 25 24 23 22 24
45 45 44 43 42 42 42 42 42 42 42 42 42 41 39 38 37 37 37 35 36 36 36 36 36 35 35 35 35 35 36 36 35 35 35 35 34 34 34 33 33 33 33 29 21 17 23 26 25 28 29 28 29 31 30 30 30 31 28 27 27 27 29 32 31 31 29 31 31 30 29 29 29 28 28 28 29 30 29 27 24 23 23 23 24
45 45 44 43 43 43 42 43 42 42 43 42 42 41 40 41 39 39 37 37 37 34 34 35 35 35 35 35 35 34 35 35 35 35 35 34 34 33 32 33 34 34 31 29 26 23 22 26 27 28 29 30 29 29 28 30 28 28 29 27 29 30 30 31 29 28 28 28 28 29 30 29 28 30 29 28 29 29 28 26 27 26 24 22 23
45 41 38 40 43 43 43 42 42 42 43 43 41 41 41 41 40 39 38 37 37 37 37 37 35 35 36 35 35 35 35 35 35 35 35 34 33 33 32 33 30 31 32 31 30 26 28 27 29 28 30 29 29 31 28 31 29 28 28 29 29 29 28 28 27 29 28 28 28 29 29 30 31 28 28 27 27 27 27 29 27 26 25 24 23
44 43 43 43 44 44 43 43 43 43 42 42 43 41 40 39 39 39 38 38 37 37 37 37 37 35 35 35 35 35 35 35 35 35 35 34 33 33 32 32 31 32 30 30 28 26 27 27 28 28 29 29 31 32 30 32 30 29 28 28 27 27 28 28 28 27 30 30 28 29 29 30 29 29 29 28 29 28 28 28 28 28 27 25 24
44 43 43 43 43 43 43 43 43 42 39 40 41 40 40 40 39 39 38 37 37 37 36 36 36 38 35 36 36 35 35 35 35 35 34 34 33 33 34 32 30 29 27 25 26 26 25 26 29 28 29 29 30 30 32 31 31 31 30 28 27 28 28 28 28 29 30 29 30 30 31 30 30 30 28 26 26 27 27 28 30 28 27 26 26
44 43 42 43 43 43 42 42 41 38 40 41 41 40 39 39 39 38 38 37 36 36 34 30 32 32 32 33 38 36 35 34 34 34 34 34 32 33 35 31 28 26 26 23 24 25 27 27 29 30 31 31 32 32 32 31 30 31 28 28 27 27 29 28 31 35 35 32 30 28 26 27 27 26 26 26 26 26 26 27 28 28 28 27 25
43 39 37 37 39 42 42 41 40 40 40 40 40 39 38 39 39 38 37 37 35 34 31 27 32 27 28 30 35 37 34 34 33 33 33 33 33 33 32 30 29 25 25 24 26 28 28 29 30 30 31 31 32 32 30 30 29 28 29 29 28 28 27 26 28 28 25 25 25 25 25 25 25 25 26 26 26 26 27 28 28 29 27 26 26
42 41 38 36 41 40 40 40 39 39 39 39 40 39 38 38 38 38 37 36 36 34 32 30 30 28 27 34 35 35 33 33 32 32 32 32 32 32 32 31 29 27 25 27 31 29 30 30 30 30 31 32 32 31 30 31 32 28 27 27 27 26 27 28 25 25 25 25 25 25 25 26 26 26 26 26 26 26 27 27 27 27 28 28 27
43 41 37 37 38 40 39 39 40 40 40 39 39 39 38 37 37 36 35 35 34 33 32 31 30 30 29 35 34 33 33 33 33 32 31 31 31 31 31 31 30 28 26 26 30 29 30 30 31 30 30 30 31 33 31 31 30 30 27 27 28 25 25 27 27 26 26 27 27 26 26 26 26 26 25 26 28 27 27 26 26 26 27 27 28
43 40 39 39 38 39 39 39 39 39 39 39 39 38 37 37 36 36 35 36 34 34 33 33 31 31 34 34 33 33 33 32 32 31 32 31 32 31 31 31 30 28 27 28 29 32 30 29 29 30 30 30 31 32 29 29 29 28 28 27 27 26 25 24 24 26 26 27 28 28 28 27 27 27 27 29 27 26 26 26 26 27 27 27 27
41 39 39 38 39 39 39 39 39 40 39 38 38 36 37 37 37 36 36 35 34 33 33 33 34 34 33 32 33 32 33 32 32 32 31 30 30 29 29 28 28 28 29 30 30 32 29 30 30 32 30 30 31 29 28 29 29 30 29 29 28 28 28 26 25 25 24 25 26 28 30 29 28 27 26 26 26 26 26 27 27 26 27 28 27
40 39 38 38 38 38 38 38 38 38 38 37 37 36 37 37 37 36 36 36 35 34 33 32 32 32 32 30 31 32 31 31 32 31 31 29 29 28 27 28 28 29 30 30 32 32 30 31 32 31 32 31 32 34 31 30 30 30 30 28 26 27 28 27 26 25 24 24 25 26 27 28 28 28 27 27 27 27 27 28 27 27 26 26 27
42 40 39 38 38 39 38 38 37 37 37 36 38 38 36 36 37 35 34 35 35 34 32 31 30 29 31 32 30 29 29 29 29 30 30 31 31 31 31 31 31 32 31 31 32 34 33 32 34 34 33 33 32 32 32 34 33 31 30 30 30 26 26 28 29 27 27 29 27 27 27 26 27 26 26 26 27 27 26 27 26 27 27 27 27
40 39 38 39 37 37 37 38 37 38 38 37 37 36 36 36 35 35 35 34 34 33 33 32 33 33 32 33 31 29 29 31 31 31 32 31 32 33 33 33 33 33 33 31 32 33 33 34 34 33 34 34 34 33 32 33 32 34 34 32 32 33 32 29 29 31 32 32 30 28 27 27 28 27 28 27 26 26 27 28 28 27 27 28 28
40 39 39 37 37 36 36 37 37 37 37 36 36 41 36 36 36 36 34 35 34 33 34 34 33 32 31 31 32 32 33 33 33 34 33 34 34 34 33 34 32 33 32 33 33 32 36 36 35 35 34 34 34 36 34 32 31 30 31 31 30 31 30 28 30 35 34 34 33 31 29 28 27 27 27 28 28 27 28 27 28 29 28 28 27
39 40 38 37 38 37 37 37 36 36 36 36 36 36 36 35 35 35 35 34 34 34 33 33 32 32 31 31 32 34 34 33 33 35 33 34 34 34 35 35 34 34 34 33 34 34 34 35 36 35 35 35 35 34 34 33 32 32 31 29 28 29 40 33 35 35 34 34 34 34 33 31 30 29 28 29 29 28 28 27 27 26 27 27 27
46 40 38 37 37 37 37 36 40 39 36 37 36 36 35 35 35 35 35 34 34 34 34 33 33 32 32 32 32 33 34 33 34 34 33 33 34 35 35 36 37 36 32 32 32 34 35 35 35 35 35 36 36 36 35 35 34 33 33 31 34 33 32 32 32 31 33 34 32 32 33 33 33 32 31 31 30 30 29 29 29 28 27 28 27
39 39 39 38 38 37 37 38 39 37 37 36 36 36 35 35 35 35 35 34 34 34 34 34 33 33 31 31 32 33 34 34 34 34 34 34 33 34 34 34 36 36 33 32 32 32 33 35 37 37 36 36 35 35 34 34 34 33 33 36 34 33 32 33 33 33 32 32 32 32 32 32 33 33 32 31 32 32 31 30 29 29 28 28 28
39 40 39 39 39 38 38 38 38 37 37 37 36 36 35 35 35 35 35 35 34 35 34 34 33 32 30 30 30 31 31 32 33 33 34 36 35 34 34 34 34 37 37 35 34 33 34 35 34 35 36 35 35 34 34 33 34 35 33 33 33 33 33 33 33 33 33 33 33 32 32 33 33 33 32 32 31 32 31 30 30 30 28 27 28